Location: Unspecified
(48.5670°N, 0.0000°E)
Time: 02:53:01
(UTC+00:00)

SR - Visible Passes

Search period start: 24 July 2019 00:00
Search period end: 03 August 2019 00:00
Orbit: 580 x 876 km, 66.7° (Epoch: 22 July)

Date Brightness Start Highest point End Pass type
(mag) Time Alt. Az. Time Alt. Az. Time Alt. Az.
24 Jul ? 02:18:47 10° NNW 02:22:21 19° NNE 02:26:08 10° ENE visible
24 Jul ? 22:00:41 10° WNW 22:03:34 16° NNW 22:06:35 10° NNE visible
25 Jul ? 01:29:33 10° N 01:32:08 14° NNE 01:34:48 10° NE visible
25 Jul ? 03:10:39 10° NNW 03:15:29 42° NE 03:20:42 10° ESE visible
25 Jul ? 21:09:48 10° W 21:13:25 24° NW 21:17:16 10° NNE visible
26 Jul ? 00:40:34 10° N 00:41:46 11° NNE 00:42:59 10° NNE visible
26 Jul ? 02:21:14 10° NNW 02:25:33 27° NE 02:30:09 10° E visible
26 Jul ? 20:19:20 10° WSW 20:23:27 39° NW 20:27:52 10° NNE visible
26 Jul ? 22:04:55 10° NW 22:06:55 12° NNW 22:08:57 10° N visible
27 Jul ? 01:31:55 10° NNW 01:35:28 19° NNE 01:39:11 10° ENE visible
27 Jul ? 03:13:15 10° NNW 03:18:25 67° NE 03:23:58 10° SE visible
27 Jul ? 21:13:38 10° WNW 21:16:38 17° NNW 21:19:46 10° NNE visible
28 Jul ? 00:42:40 10° N 00:45:12 14° NNE 00:47:49 10° NE visible
28 Jul ? 02:23:46 10° NNW 02:28:36 40° NE 02:33:49 10° ESE visible
28 Jul ? 20:22:48 10° W 20:26:30 25° NW 20:30:27 10° NNE visible
28 Jul ? 22:09:47 10° NNW 22:10:21 10° NNW 22:10:57 10° N visible
28 Jul ? 23:53:40 10° N 23:54:50 11° NNE 23:56:00 10° NNE visible
29 Jul ? 01:34:22 10° NNW 01:38:39 26° NE 01:43:13 10° E visible
29 Jul ? 03:16:00 10° NW 03:21:13 75° WSW 03:26:50 10° SSE visible
29 Jul ? 21:17:50 10° NW 21:19:58 13° NNW 21:22:11 10° N visible
30 Jul ? 00:45:02 10° NNW 00:48:33 18° NNE 00:52:13 10° ENE visible
30 Jul ? 02:26:23 10° NNW 02:31:32 64° NE 02:37:06 10° SE visible
30 Jul ? 20:26:36 10° WNW 20:29:42 18° NNW 20:32:58 10° NNE visible
30 Jul ? 23:55:48 10° N 23:58:17 13° NNE 00:00:50 10° NE visible
31 Jul ? 01:36:54 10° NNW 01:41:43 39° NE 01:46:55 10° ESE visible
31 Jul ? 03:18:54 10° NW 03:23:54 45° WSW 03:29:15 10° S visible
31 Jul ? 21:22:28 10° NNW 21:23:25 10° NNW 21:24:22 10° N visible
31 Jul ? 23:06:47 10° N 23:07:53 11° NNE 23:09:01 10° NNE visible
01 Aug ? 00:47:29 10° NNW 00:51:46 26° NE 00:56:17 10° E visible
01 Aug ? 02:29:06 10° NW 02:34:22 79° WSW 02:40:01 10° SSE visible
01 Aug ? 20:30:44 10° NW 20:33:02 13° NNW 20:35:24 10° N visible
01 Aug ? 23:58:09 10° NNW 00:01:38 18° NNE 00:05:15 10° ENE visible
02 Aug ? 01:39:30 10° NNW 01:44:40 62° NE 01:50:15 10° SE visible
02 Aug ? 03:22:05 10° NW 03:26:29 26° WSW 03:31:07 10° SSW visible
02 Aug ? 23:08:55 10° N 23:11:20 13° NNE 23:13:52 10° NE visible
